Location: Unspecified
(0.0000°N, 0.0000°E)
Time: 05:43:07
(UTC+00:00)

Courier 1B Rocket - Visible Passes

Search period start: 17 August 2017 00:00
Search period end: 27 August 2017 00:00
Orbit: 920 x 1202 km, 28.2° (Epoch: 16 August)

Date Brightness Start Highest point End Pass type
(mag) Time Alt. Az. Time Alt. Az. Time Alt. Az.
17 Aug 7.3 19:32:54 10° N 19:34:57 11° NNE 19:36:58 10° NE visible
17 Aug 7.6 21:23:18 10° NW 21:24:10 13° NNW 21:24:10 13° NNW visible
18 Aug 6.8 20:22:38 10° NNW 20:26:52 22° N 20:26:52 22° N visible
19 Aug 7.0 19:22:11 10° NNW 19:26:45 17° NNE 19:29:37 14° NE visible
19 Aug 7.3 21:14:01 10° NW 21:15:59 19° NW 21:15:59 19° NW visible
20 Aug 7.3 18:22:12 10° N 18:25:05 12° NNE 18:27:54 10° NE visible
20 Aug 6.2 20:13:05 10° NW 20:18:46 34° N 20:18:46 34° N visible
21 Aug 6.6 19:12:21 10° NNW 19:18:23 25° NNE 19:21:36 19° ENE visible
21 Aug 7.0 21:04:59 10° NW 21:07:58 26° NW 21:07:58 26° NW visible
22 Aug 5.6 20:03:49 10° NW 20:10:51 53° NNE 20:10:51 53° NNE visible
23 Aug 6.1 19:02:51 10° NW 19:09:52 37° NNE 19:13:46 22° ENE visible
23 Aug 6.6 20:56:15 10° WNW 21:00:10 33° WNW 21:00:10 33° WNW visible
24 Aug 5.1 19:54:48 10° WNW 20:02:30 81° NNE 20:03:08 75° E visible
25 Aug 7.0 05:33:19 10° SSW 05:37:15 17° SSE 05:41:13 10° ESE visible
25 Aug 5.6 18:53:37 10° NW 19:01:13 56° NNE 19:06:08 22° E visible
25 Aug 6.5 20:47:49 10° WNW 20:52:31 35° WSW 20:52:31 35° WSW visible
26 Aug 7.2 04:34:19 10° S 04:35:56 11° SSE 04:37:33 10° SE visible
26 Aug 5.4 19:46:04 10° WNW 19:53:47 69° SSW 19:55:34 52° SSE visible
